Location: Noral
(54.6536°N, 112.3633°W)
Time: 03:31:09
(UTC+00:00)

X-37B - Pass Details

Date: 11 December 2021
Orbit: 334 x 337 km, 45.0° (Epoch: 11 January)

Event Time Altitude Azimuth Distance (km) Brightness Sun altitude
Rises 01:49:53 0° 233° (SW) 2,102 5.3 -22.5°
Reaches altitude 10° 01:52:45 10° 200° (SSW) 1,266 3.5 -22.9°
Enters shadow 01:52:52 10° 198° (SSW) 1,246 3.4 -22.9°
